Lapse_Rate
4.5 4.5 4.4 4.8 5.0 4.3 3.9 3.9 4.1 4.0 3.9 4.2 4.1 4.2 4.3 4.5 4.7 4.6 4.7 4.7 4.9 5.3 5.8 5.9 6.4 7.5 7.5 7.3 7.1 6.6 6.6 6.0
4.7 4.2 5.7 5.1 4.6 4.3 3.8 3.9 4.2 4.3 4.4 4.5 4.9 4.9 4.9 4.9 5.0 5.1 5.2 5.4 5.6 6.2 7.3 7.4 7.5 7.4 7.9 7.8 7.7 7.3 5.3 4.8
4.6 4.5 4.8 4.3 3.7 4.0 3.9 4.2 4.4 4.6 4.9 5.2 5.0 5.2 5.3 5.3 5.3 5.9 6.2 6.6 6.9 7.2 7.6 7.6 7.9 8.3 8.2 8.2 7.9 7.6 5.9 4.7
4.9 5.9 4.8 4.7 5.3 3.9 3.8 4.1 4.6 5.3 5.6 5.7 5.3 5.3 5.8 5.9 6.2 6.9 7.2 6.9 7.0 7.7 7.8 7.8 8.0 8.3 7.9 8.3 8.4 8.1 6.5 5.0
5.2 5.1 5.3 5.5 4.9 3.8 4.7 5.1 5.3 5.7 6.0 6.2 6.2 6.4 6.4 6.5 6.1 6.4 6.5 6.7 7.3 7.3 7.2 7.6 7.5 7.5 7.7 7.8 7.8 8.3 7.4 6.5
5.8 6.1 5.7 5.8 5.3 5.3 5.5 5.3 5.3 5.4 7.0 6.5 6.1 5.3 5.4 5.3 5.4 5.9 6.1 6.4 6.5 6.3 6.3 7.0 7.0 7.2 7.4 7.3 7.5 7.5 7.9 6.6
5.9 6.0 5.7 5.6 5.6 5.7 5.4 4.9 4.9 4.5 4.2 5.1 5.2 4.7 3.7 4.4 4.4 5.1 5.0 5.8 5.9 5.7 5.9 5.8 5.9 6.6 6.7 6.8 6.8 7.2 7.3 7.1
5.4 5.7 5.7 5.5 4.8 4.1 3.4 4.1 4.6 5.1 4.7 4.8 4.7 4.1 4.0 3.9 4.1 4.2 5.0 6.2 6.2 5.9 5.2 4.8 4.6 5.7 5.9 6.4 6.8 7.0 7.1 7.2
5.2 5.6 5.0 4.5 3.5 3.3 3.2 3.5 3.9 3.9 4.0 4.2 4.0 4.2 4.3 4.7 4.5 3.9 4.7 5.7 5.8 5.9 4.9 5.1 4.4 5.4 5.2 6.4 6.9 6.9 6.9 6.9
5.4 6.5 4.5 3.5 2.7 2.3 2.3 2.7 2.4 2.9 3.0 3.2 3.6 4.5 5.7 5.5 4.1 3.3 4.9 5.2 4.8 3.7 3.1 3.4 3.8 4.1 4.3 4.4 5.3 6.5 6.3 6.9
5.2 4.3 3.5 2.8 2.2 1.9 1.8 2.1 2.2 2.9 4.2 4.3 4.6 5.4 6.1 4.8 3.3 4.2 5.5 4.7 3.9 4.2 3.8 4.1 4.3 4.3 5.9 5.4 4.3 4.6 5.6 6.1
4.7 3.8 3.0 2.3 1.8 1.6 1.9 2.6 3.7 4.5 4.5 4.9 5.4 6.0 5.6 4.3 4.1 4.6 5.0 3.9 3.4 3.8 4.3 4.3 4.3 4.5 6.9 5.9 4.2 4.8 5.7 4.8
4.2 3.0 2.7 2.9 2.1 2.0 3.2 4.3 4.4 4.5 5.6 5.2 5.2 5.5 5.7 5.2 4.5 4.6 4.7 3.7 4.1 4.4 4.3 4.8 4.6 4.2 4.6 4.2 4.6 4.5 5.7 3.7
3.5 3.5 3.3 3.5 3.1 3.5 4.3 4.4 4.4 4.1 4.8 5.4 5.5 5.7 6.0 5.9 5.5 4.6 5.1 4.0 4.0 4.0 4.6 4.7 4.8 4.1 5.1 4.3 4.6 5.0 4.9 5.3
2.4 3.3 3.7 4.1 4.4 5.5 5.1 4.8 4.0 3.6 3.5 3.0 5.1 6.8 7.1 7.1 6.5 5.9 5.6 5.4 4.9 5.2 4.9 5.0 5.0 4.8 4.9 5.3 5.1 5.0 5.0 5.4
3.8 4.5 4.3 4.9 5.3 5.4 5.7 5.3 4.8 3.4 3.4 4.1 5.5 6.9 5.8 5.9 5.6 5.2 4.7 4.8 4.3 4.4 6.4 5.4 4.8 5.0 4.8 6.1 5.0 4.5 5.1 4.6
4.9 4.4 5.5 6.2 6.8 6.3 3.4 3.6 3.2 2.8 3.6 4.1 4.4 4.2 5.2 4.7 4.5 4.3 4.0 4.0 3.7 3.7 4.6 5.4 4.9 4.6 4.5 4.8 5.1 5.1 5.2 4.9
4.3 5.3 5.5 3.6 2.8 2.8 2.7 2.8 2.5 2.8 3.0 2.8 3.6 4.0 3.2 4.5 5.0 4.7 4.9 4.7 4.3 4.8 5.4 4.9 4.4 4.2 4.6 5.0 5.1 5.8 5.4 5.0
5.6 4.5 3.6 3.0 2.5 2.1 1.9 2.0 2.0 2.2 2.3 2.6 3.8 3.0 3.3 3.2 4.2 4.0 4.2 5.6 5.9 6.4 5.8 5.6 5.1 4.8 5.2 5.2 5.5 6.1 5.9 5.9
4.0 3.9 3.3 3.1 2.4 2.0 1.8 2.0 1.3 1.9 2.3 2.4 2.3 3.0 3.3 3.8 4.2 5.0 5.7 5.8 6.2 6.6 5.9 5.3 5.3 5.1 5.6 5.6 5.5 5.9 6.2 6.7
Wind_Speed
16 18 20 23 25 24 24 22 20 20 21 20 20 21 20 17 14 12 10 9 8 5 4 6 8 11 16 19 23 23 14 11
13 10 20 18 17 22 22 22 21 19 20 20 20 19 17 16 13 11 8 6 4 2 4 6 7 9 9 15 19 23 13 11
6 7 12 16 17 20 21 21 19 18 17 16 15 14 15 14 11 11 8 6 4 1 2 7 8 13 5 9 15 19 11 10
13 18 15 16 14 15 18 16 17 16 16 15 14 12 15 13 11 7 6 3 0 2 3 3 4 8 8 9 11 13 11 8
9 10 19 16 13 13 12 15 16 17 17 14 11 11 8 3 5 1 3 2 6 5 10 11 11 12 8 5 7 10 10 5
9 13 13 14 14 12 13 11 12 10 9 10 7 14 13 12 10 8 12 10 11 11 11 11 13 14 12 12 9 10 9 2
7 9 8 11 11 13 11 11 12 13 16 17 16 12 9 9 9 12 14 12 11 12 12 12 13 15 15 13 12 13 13 14
7 6 10 15 9 12 10 14 15 13 13 11 10 10 8 6 9 9 10 10 12 12 10 8 8 9 9 11 13 13 13 16
7 8 12 10 11 12 12 11 14 10 10 9 7 6 8 6 6 7 8 9 8 9 12 12 9 10 6 11 12 9 14 16
9 7 10 8 9 9 10 11 9 9 10 8 9 7 6 4 8 7 8 9 7 8 6 4 4 4 4 4 5 9 11 15
11 12 10 9 11 11 7 7 8 10 12 11 10 7 5 13 11 8 8 8 9 5 3 2 3 3 3 3 5 4 9 13
15 12 11 8 7 7 4 5 8 13 11 13 14 10 12 10 8 6 8 7 4 4 4 3 1 2 3 4 4 5 8 8
15 14 12 7 4 4 2 4 4 3 11 17 13 12 11 12 9 10 9 4 3 3 1 2 2 3 2 3 3 3 6 4
14 14 13 8 5 3 3 4 3 4 12 14 15 12 13 9 7 6 6 3 5 3 2 2 1 3 1 1 4 4 4 5
13 14 13 10 10 5 3 5 5 3 3 4 8 11 8 6 4 3 3 2 1 2 2 2 1 2 4 2 3 1 2 2
11 12 12 10 10 8 13 8 6 3 4 4 5 7 9 14 13 10 8 6 4 3 0 2 2 1 2 2 1 3 1 4
13 10 8 8 11 12 7 8 5 4 4 7 5 7 11 12 11 10 8 7 5 5 6 4 1 2 2 1 1 2 1 2
7 8 6 8 9 9 11 12 9 7 5 4 3 3 6 10 11 8 8 7 5 5 2 4 3 3 0 1 2 2 2 2
10 9 9 10 11 9 9 10 9 9 6 4 4 2 2 3 6 6 4 6 9 5 0 0 1 0 1 2 1 2 1 1
8 10 10 10 9 8 7 8 5 4 4 4 4 4 3 6 6 5 6 8 9 5 2 2 2 2 4 3 2 2 1 1
Wind_Direction
109 109 121 130 126 124 121 119 117 117 116 116 117 115 112 110 108 102 100 89 79 59 24 29 10 353 350 2 6 54 97 81
118 123 148 129 123 122 122 123 124 125 127 131 131 127 127 131 130 131 125 119 105 59 3 23 2 339 328 357 9 26 100 72
99 197 137 130 126 132 131 133 137 137 134 137 135 136 140 158 162 155 149 153 143 123 338 7 16 46 19 357 27 21 89 75
185 183 143 140 144 143 137 137 147 150 147 158 162 171 176 179 172 165 186 146 211 281 314 352 48 40 38 49 37 30 51 72
205 161 157 155 150 146 149 155 162 167 165 179 188 170 131 128 127 100 340 81 36 358 45 51 35 35 50 26 40 36 33 69
181 158 171 156 156 162 161 170 178 170 124 81 107 97 92 70 81 71 67 71 75 64 56 42 29 25 27 37 30 17 5 47
162 138 156 141 118 120 124 101 96 93 77 68 71 75 76 57 63 57 60 68 55 44 41 41 42 34 29 23 16 3 12 17
158 132 128 112 116 105 93 93 94 86 93 87 82 79 60 64 70 66 68 60 57 57 48 42 29 29 15 9 355 4 16 6
148 150 105 108 108 113 115 112 113 105 109 97 93 93 91 92 88 89 65 44 68 51 46 41 31 15 2 347 356 13 9 360
151 132 111 106 106 94 95 95 118 123 110 104 109 113 121 114 106 79 55 35 53 63 47 24 20 15 346 345 354 5 14 6
141 119 127 121 115 119 109 132 130 134 128 135 128 135 129 125 110 78 53 50 64 46 24 53 1 351 323 338 322 355 9 16
137 134 134 127 120 111 141 149 159 159 161 142 124 107 84 84 81 69 46 56 40 27 28 356 33 305 339 354 356 341 22 28
144 141 139 138 133 126 168 169 166 130 135 119 116 100 78 88 81 74 60 59 38 17 32 8 316 358 42 348 316 352 358 44
145 148 148 156 158 186 156 168 137 147 116 111 101 100 93 89 77 72 58 43 11 7 18 327 319 24 53 334 354 334 18 348
153 155 164 164 184 178 122 111 104 91 95 103 113 111 108 102 90 70 28 56 330 313 313 65 140 317 59 117 357 306 317 345
161 172 179 180 180 151 153 148 153 167 140 143 138 134 97 87 86 69 52 28 1 306 319 221 149 171 358 49 124 181 284 324
170 185 175 188 170 154 136 126 124 118 108 112 129 102 99 94 82 59 38 17 351 339 313 300 136 112 122 8 324 291 246 196
146 141 126 97 100 121 130 130 126 113 119 122 131 108 85 73 63 54 32 356 342 332 7 87 99 110 132 275 214 209 251 232
136 125 113 111 105 106 115 122 123 131 144 144 121 102 82 71 64 47 17 339 338 340 37 17 142 111 270 247 231 268 205 230
128 127 128 124 118 118 114 122 131 138 134 133 125 118 122 79 63 36 0 353 354 330 289 224 183 244 260 278 284 272 250 181